User: anonymous   Login
Location: Caltech
(34.1382°N, 118.1253°W)
Time: 02:22:23
(UTC-08:00)
Language:

Gbstr 26 Del rocket - Orbit

View from above orbital plane
View from above orbital plane
View from above satellite
View from above satellite

Ground track
Ground track

The orbit data is extracted from the following two-line orbital elements,

1 25876U 99041E   14352.88319366  .00001854  00000-0  36032-3 0  5452
2 25876 051.7688 309.7452 0537229 253.8981 206.4947 14.02742892786630
Epoch (UTC): 18 December 2014 21:11:47
Eccentricity: 0.0537229
inclination: 51.7688°
perigee height: 494 km
apogee height: 1274 km
right ascension of ascending node: 309.7452°
argument of perigee: 253.8981°
revolutions per day: 14.02742892
mean anomaly at epoch: 206.4947°
orbit number at epoch: 78663

The dashed part of the orbit path shows where the satellite is in the earth's shadow,  

DLR